METOP-B

Last updated on Tue Jan 14 2025 00:02:17 GMT+0000 (Coordinated Universal Time)

1 38771U 12049A 25013.56366354 .00000229 00000+0 12429-3 0 9994 2 38771 98.6014 71.7588 0001792 83.7571 276.3811 14.21409319639440
UTC large
Height (km)
Speed (km/s)
/
Latitude / Longitude
Inclination (degrees)
Orbital Period (minutes)
Azimuth
Elevation
Range (km)
Doppler Factor

Next 0 passes for location: London (51.5072 / 0.1276)

Sorry there are no passes over London.